Aberdeen, SD

11:54 PM CDT on August 30, 2016 (GMT -0500)
Aberdeen Regional

Weather History for KABR - July, 2012

Change the Weather History Date:

Tuesday, July 31, 2012

  Actual Average Record
Temperature  
Mean Temperature 71 °F 72 °F  
Max Temperature 85 °F 84 °F 106 °F (1987)
Min Temperature 57 °F 59 °F 42 °F (1903)
Degree Days  
Heating Degree Days 0 0  
Month to date heating degree days 0 8  
Since 1 June heating degree days 31 90  
Since 1 July heating degree days 0 14  
Cooling Degree Days 6 7  
Month to date cooling degree days 371 208  
Year to date cooling degree days 596 323  
Since 1 June cooling degree days 554 300  
Growing Degree Days 20 (Base 50)    
Moisture  
Dew Point 63 °F    
Average Humidity 72    
Maximum Humidity 93    
Minimum Humidity 51    
Precipitation  
Precipitation T in 0.08 in 0.97 in (1917)
Month to date precipitation 2.70 3.02  
Year to date precipitation 10.68 13.86  
Sea Level Pressure  
Sea Level Pressure 29.93 in    
Wind  
Wind Speed 7 mph (SSE)    
Max Wind Speed 28 mph    
Max Gust Speed 37 mph    
Visibility 10 miles    
Events Rain , Thunderstorm    
T = Trace of Precipitation, MM = Missing Value Source: NWS Daily Summary

Daily Weather History Graph

Daily Weather History Graph

Search for Another Location

Airport or City:

Trip Planner

Search our weather history database for the weather conditions in past years. The results will help you decide how hot, cold, wet, or windy it might be!

Date:

Astronomy

Jul. 31, 2012 Rise Set
Actual Time 6:17 AM CDT 9:02 PM CDT
Civil Twilight 5:42 AM CDT 9:36 PM CDT
Nautical Twilight 4:59 AM CDT 10:19 PM CDT
Astronomical Twilight 4:09 AM CDT 11:09 PM CDT
Moon 7:51 PM CDT 4:38 AM CDT
Length of Visible Light 15h 53m
Length of Day
14h 44m
Waxing Gibbous, 97% of the Moon is Illuminated
Jul 31
Waxing Gibbous
Aug 1
Full
Aug 9
Last Quarter
Aug 17
New
Aug 24
First Quarter

Hourly Weather History & Observations

Time (CDT) Temp. Heat Index Dew Point Humidity Pressure Visibility Wind Dir Wind Speed Gust Speed Precip Events Conditions
12:53 AM 64.9 °F - 62.1 °F 90% 29.99 in 10.0 mi Calm Calm - N/A   Clear
1:53 AM 64.9 °F - 61.0 °F 87% 29.98 in 5.0 mi Calm Calm - N/A   Clear
2:53 AM 62.1 °F - 60.1 °F 93% 29.98 in 10.0 mi Calm Calm - N/A   Clear
3:53 AM 60.1 °F - 57.9 °F 93% 29.98 in 10.0 mi SE 3.5 mph - N/A   Clear
4:53 AM 60.1 °F - 57.9 °F 93% 29.99 in 10.0 mi Calm Calm - N/A   Clear
5:53 AM 59.0 °F - 57.0 °F 93% 29.99 in 10.0 mi Calm Calm - N/A   Clear
6:53 AM 57.9 °F - 55.9 °F 93% 29.99 in 10.0 mi SSE 3.5 mph - N/A   Partly Cloudy
7:53 AM 64.0 °F - 60.1 °F 87% 29.98 in 10.0 mi Calm Calm - N/A   Clear
8:53 AM 70.0 °F - 63.0 °F 78% 29.99 in 10.0 mi South 5.8 mph - N/A   Clear
9:53 AM 75.0 °F - 64.9 °F 71% 29.99 in 10.0 mi South 9.2 mph - N/A   Clear
10:53 AM 79.0 °F - 64.0 °F 60% 29.98 in 10.0 mi SSE 10.4 mph - N/A   Clear
11:53 AM 82.0 °F 83.0 °F 62.1 °F 51% 29.99 in 10.0 mi SSW 11.5 mph - N/A   Clear
12:53 PM 80.1 °F 81.5 °F 63.0 °F 56% 29.98 in 10.0 mi South 6.9 mph - N/A   Clear
1:53 PM 73.4 °F - 62.6 °F 69% 29.90 in 10.0 mi South 23.0 mph 33.4 mph N/A Rain Light Rain
2:00 PM 73.4 °F - 62.6 °F 69% 29.84 in 10.0 mi South 24.2 mph 33.4 mph 0.00 in Rain Light Rain
2:53 PM 82.9 °F 83.7 °F 62.1 °F 49% 29.88 in 10.0 mi SE 9.2 mph - 0.00 in   Clear
3:53 PM 82.0 °F 83.4 °F 64.0 °F 54% 29.90 in 10.0 mi ESE 5.8 mph - N/A   Clear
4:32 PM 82.4 °F 84.6 °F 66.2 °F 58% 29.91 in 10.0 mi SE 4.6 mph - N/A Thunderstorm Partly Cloudy
4:53 PM 84.0 °F 85.8 °F 64.9 °F 53% 29.90 in 10.0 mi Variable 4.6 mph - N/A   Partly Cloudy
5:53 PM 84.9 °F 87.1 °F 66.0 °F 53% 29.87 in 10.0 mi ESE 5.8 mph - N/A   Clear
6:53 PM 84.9 °F 88.2 °F 68.0 °F 57% 29.86 in 10.0 mi East 9.2 mph - N/A   Clear
7:53 PM 82.9 °F 85.8 °F 68.0 °F 60% 29.85 in 10.0 mi East 6.9 mph - N/A   Clear
8:53 PM 78.1 °F - 68.0 °F 71% 29.83 in 10.0 mi ESE 8.1 mph - N/A   Clear
9:53 PM 75.0 °F - 66.0 °F 73% 29.83 in 10.0 mi SE 8.1 mph - N/A   Clear
10:53 PM 73.9 °F - 64.9 °F 73% 29.83 in 10.0 mi SSE 10.4 mph - N/A   Clear
11:53 PM 77.0 °F - 64.0 °F 64% 29.82 in 10.0 mi SSE 10.4 mph - N/A   Clear